Regional Weather Roundup
Issued by NWS

Home | Current Version | Previous Version | Graphics & Text | Print | Product List | Glossary On
Versions: 1 2 3 4 5 6 7 8 9 10 11 12 13 14 15 16 17 18 19 20 21 22 23 24 25 26 27 28 29 30 31 32 33 34 35 36 37 38 39 40 41 42 43 44 45 46 47 48 49 50
000
ASUS43 KFSD 190802
RWRSD

WEATHER ROUNDUP FOR SOUTH DAKOTA
NATIONAL WEATHER SERVICE SIOUX FALLS SD
200 AM CST FRI JAN 19 2018

NOTE: "FAIR" INDICATES FEW OR NO CLOUDS BELOW 12,000 FEET WITH NO
SIGNIFICANT WEATHER AND/OR OBSTRUCTIONS TO VISIBILITY.


SDZ001>005-009-010-012>017-190900-
NORTHWEST AND NORTH CENTRAL SOUTH DAKOTA

CITY           SKY/WX    TMP DP  RH WIND       PRES   REMARKS
BUFFALO          N/A     38  28  67 CALM      29.54F
FAITH            N/A     37  28  70 SW8       29.60F
MOBRIDGE       CLOUDY    31  25  78 SE7       29.57F WCI  24
$$

SDZ012>016-024>037-041>051-057-063-072>074-190900-
SOUTHWEST AND SOUTH CENTRAL SOUTH DAKOTA

CITY           SKY/WX    TMP DP  RH WIND       PRES   REMARKS
RAPID CTY ARPT CLOUDY    43  27  53 W3        29.62F
PIERRE         CLOUDY    25  23  92 CALM      29.62F
CUSTER         CLOUDY    45  22  40 W20G30    29.71F
ELLSWORTH AFB  CLOUDY    45  28  51 CALM      29.61F
PHILIP         MOCLDY    30  26  85 W6        29.62F WCI  24
PINE RIDGE     CLOUDY    34  29  82 SW6       29.71F WCI  29
SPEARFISH        N/A     50  28  43 W7        29.63F
WINNER         FAIR      44  31  60 SW17      29.63F
$$

SDZ004>011-016>023-039-040-190900-
NORTHEAST SOUTH DAKOTA

CITY           SKY/WX    TMP DP  RH WIND       PRES   REMARKS
ABERDEEN       MOCLDY    26  24  92 S13       29.62F WCI  15
WATERTOWN      CLOUDY    28  26  92 S8        29.65F WCI  20
BROOKINGS      CLOUDY    29  26  89 SE7       29.68F WCI  22
SISSETON         N/A     45  26  47 SW14      29.58F
$$

SDZ017-020-022-023-036>040-048>070-190900-
SOUTHEAST SOUTH DAKOTA

CITY           SKY/WX    TMP DP  RH WIND       PRES   REMARKS
SIOUX FALLS    CLOUDY    30  27  88 CALM      29.71F
HURON          MOCLDY    27  25  92 SE6       29.64F WCI  20
CHAMBERLAIN    MOCLDY    32  31  97 CALM      29.63F
MITCHELL       CLOUDY    31  28  89 S7        29.68F WCI  24
YANKTON        CLOUDY    28  25  88 E3        29.72F
$$

ABBREVIATIONS USED IN REMARKS
   TC - TEMPERATURE IN CELSIUS
  WCI - WIND CHILL INDEX
   HX - HEAT INDEX
  VSB - VISIBILITY




USA.gov is the U.S. government's official web portal to all federal, state and local government web resources and services.